Corsicana, TX

12:52 PM CST on February 18, 2018 (GMT -0600)
Campbell-Corsicana Municipal

Weather History for KCRS - February, 2013

Change the Weather History Date:

Sunday, February 17, 2013

  Actual Average (KTYR) Record (KTYR)
Temperature  
Mean Temperature 54 °F -  
Max Temperature 70 °F 60 °F 82 °F (2000)
Min Temperature 39 °F 41 °F 11 °F (1900)
Degree Days  
Heating Degree Days 10    
Growing Degree Days 4 (Base 50)    
Moisture  
Dew Point 33 °F    
Average Humidity 47    
Maximum Humidity 70    
Minimum Humidity 23    
Precipitation  
Precipitation 0.00 in - - ()
Sea Level Pressure  
Sea Level Pressure 30.09 in    
Wind  
Wind Speed 12 mph (South)    
Max Wind Speed 22 mph    
Max Gust Speed 32 mph    
Visibility 10 miles    
Events      
Averages and records for this station are not official NWS values.
T = Trace of Precipitation, MM = Missing Value Source: NWS Daily Summary

Daily Weather History Graph

Daily Weather History Graph

Search for Another Location

Airport or City:

Trip Planner

Search our weather history database for the weather conditions in past years. The results will help you decide how hot, cold, wet, or windy it might be!

Date:

Astronomy

Feb. 17, 2013 Rise Set
Actual Time 7:05 AM CST 6:13 PM CST
Civil Twilight 6:40 AM CST 6:38 PM CST
Nautical Twilight 6:12 AM CST 7:07 PM CST
Astronomical Twilight 5:43 AM CST 7:35 PM CST
Moon 11:27 AM CST (2/17) 12:43 AM CST (2/17)
Length of Visible Light 11h 58m
Length of Day
11h 08m
Waxing Crescent, 49% of the Moon is Illuminated
Feb 17
Waxing Crescent
Feb 17
First Quarter
Feb 25
Full
Mar 4
Last Quarter
Mar 11
New

Hourly Weather History & Observations

Time (CST) Temp. Windchill Dew Point Humidity Pressure Visibility Wind Dir Wind Speed Gust Speed Precip Events Conditions
12:53 AM 39.9 °F 34.5 °F 30.0 °F 68% 30.20 in 10.0 mi SSE 8.1 mph - N/A   Clear
1:53 AM 41.0 °F 35.8 °F 30.9 °F 67% 30.19 in 10.0 mi SSE 8.1 mph - N/A   Clear
2:53 AM 42.1 °F 36.1 °F 30.9 °F 65% 30.17 in 10.0 mi South 10.4 mph - N/A   Clear
3:53 AM 42.1 °F 36.6 °F 30.9 °F 65% 30.15 in 10.0 mi South 9.2 mph - N/A   Clear
4:53 AM 42.1 °F 36.6 °F 30.9 °F 65% 30.15 in 10.0 mi South 9.2 mph - N/A   Clear
5:53 AM 41.0 °F 35.2 °F 30.9 °F 67% 30.15 in 10.0 mi South 9.2 mph - N/A   Clear
6:53 AM 39.9 °F 34.5 °F 30.9 °F 70% 30.16 in 10.0 mi South 8.1 mph - N/A   Clear
7:53 AM 43.0 °F 37.7 °F 32.0 °F 65% 30.17 in 10.0 mi South 9.2 mph - N/A   Clear
8:53 AM 51.1 °F - 33.1 °F 50% 30.17 in 10.0 mi SSW 10.4 mph - N/A   Clear
9:53 AM 57.9 °F - 30.9 °F 36% 30.17 in 10.0 mi SW 16.1 mph - N/A   Clear
10:53 AM 62.1 °F - 30.0 °F 30% 30.15 in 10.0 mi SSW 19.6 mph - N/A   Clear
12:53 PM 66.9 °F - 28.9 °F 24% 30.09 in 10.0 mi South 18.4 mph 28.8 mph N/A   Clear
1:53 PM 68.0 °F - 28.9 °F 23% 30.06 in 10.0 mi SSW 21.9 mph 32.2 mph N/A   Clear
2:53 PM 70.0 °F - 32.0 °F 25% 30.03 in 10.0 mi SSW 19.6 mph 27.6 mph N/A   Clear
3:53 PM 69.1 °F - 30.9 °F 24% 30.01 in 10.0 mi South 19.6 mph 27.6 mph N/A   Clear
4:53 PM 69.1 °F - 30.9 °F 24% 29.99 in 10.0 mi South 15.0 mph 29.9 mph N/A   Clear
5:53 PM 64.9 °F - 32.0 °F 29% 29.98 in 10.0 mi South 15.0 mph - N/A   Clear
6:53 PM 62.1 °F - 34.0 °F 35% 29.98 in 10.0 mi South 10.4 mph - N/A   Clear
7:53 PM 60.1 °F - 37.0 °F 42% 29.98 in 10.0 mi South 11.5 mph - N/A   Clear
8:53 PM 61.0 °F - 42.1 °F 50% 29.99 in 10.0 mi South 19.6 mph 31.1 mph N/A   Clear
9:53 PM 59.0 °F - 44.1 °F 58% 30.00 in 10.0 mi South 21.9 mph 29.9 mph N/A   Partly Cloudy
11:53 PM 57.9 °F - 45.0 °F 62% 29.96 in 10.0 mi South 17.3 mph - N/A   Mostly Cloudy